This is the latest recevied weather packets stored in our database for station/object HB9HFD-13. If no packets are shown the sender has not sent any weather packets the latest 1 day(s).
| Time | Temp. | Humidity | Pressure | Rain* | Wind** | Luminosity | Snow |
|---|---|---|---|---|---|---|---|
| 1778087482 | 12.78° C | 76% | 1007.8 hPa | 0 mm | - | - | - |
| 1778086581 | 12.78° C | 78% | 1007.8 hPa | 0 mm | - | - | - |
| 1778086281 | 12.78° C | 79% | 1007.8 hPa | 0 mm | - | - | - |
| 1778085380 | 12.22° C | 80% | 1007.9 hPa | 0 mm | - | - | - |
| 1778084179 | 12.22° C | 77% | 1008 hPa | 0 mm | - | - | - |
| 1778083278 | 12.78° C | 76% | 1008 hPa | 0 mm | - | - | - |
| 1778082978 | 12.78° C | 75% | 1008 hPa | 0 mm | - | - | - |
| 1778082077 | 13.33° C | 76% | 1008 hPa | 0 mm | - | - | - |
| 1778081777 | 13.33° C | 78% | 1008 hPa | 0 mm | - | - | - |
| 1778080576 | 12.78° C | 80% | 1008 hPa | 0 mm | - | - | - |
| 1778079675 | 12.22° C | 81% | 1008.2 hPa | 0 mm | - | - | - |
| 1778079375 | 12.22° C | 80% | 1008.3 hPa | 0 mm | - | - | - |
| 1778078774 | 12.22° C | 80% | 1008.3 hPa | 0 mm | - | - | - |
| 1778078474 | 12.22° C | 81% | 1008.4 hPa | 0 mm | - | - | - |
| 1778077573 | 11.67° C | 80% | 1008.4 hPa | 0 mm | - | - | - |
| 1778077273 | 11.67° C | 80% | 1008.4 hPa | 0 mm | - | - | - |
| 1778076372 | 11.11° C | 82% | 1008.4 hPa | 0 mm | - | - | - |
| 1778076072 | 11.11° C | 81% | 1008.5 hPa | 0 mm | - | - | - |
| 1778075471 | 11.11° C | 82% | 1008.5 hPa | 0 mm | - | - | - |
| 1778075171 | 11.11° C | 81% | 1008.5 hPa | 0 mm | - | - | - |
| 1778074270 | 10.56° C | 84% | 1008.5 hPa | 0 mm | - | - | - |
| 1778073970 | 10.56° C | 84% | 1008.5 hPa | 0 mm | - | - | - |
| 1778073069 | 10.56° C | 86% | 1008.5 hPa | 0 mm | - | - | - |
| 1778070667 | 10° C | 89% | 1008.3 hPa | 0.51 mm | - | - | - |
| 1778069766 | 10° C | 89% | 1008.1 hPa | 0.51 mm | - | - | - |
* Rain latest hour (hover to see other rain measurements)
** Current wind speed in m/s (hover to see current wind gust speed)